| time (UTC) | temp C | wind direction | speed KPH | gust KPH | rain 1hr cm | rain 24hr cm | rain mn cm | humidity % | barometer mb |
| 20260507130416 | 13 | 72 | 3.2 | 8.0 | 0.00 | 0.05 | 0.00 | 83 | 1012.9 |
| 20260507125911 | 14 | 43 | 3.2 | 9.7 | 0.00 | 0.05 | 0.00 | 85 | 1012.6 |
| 20260507125406 | 14 | 22 | 3.2 | 12.9 | 0.00 | 0.05 | 0.00 | 85 | 1012.4 |
| 20260507124906 | 14 | 61 | 3.2 | 12.9 | 0.00 | 0.05 | 0.00 | 85 | 1012.2 |
| 20260507124407 | 14 | 96 | 3.2 | 8.0 | 0.00 | 0.05 | 0.00 | 86 | 1012.2 |
| 20260507123904 | 14 | 119 | 3.2 | 8.0 | 0.00 | 0.05 | 0.00 | 87 | 1012.4 |
| 20260507123403 | 14 | 87 | 3.2 | 9.7 | 0.00 | 0.05 | 0.00 | 87 | 1012.4 |
| 20260507123120 | 14 | 61 | 3.2 | 9.7 | 0.00 | 0.05 | 0.00 | 86 | 1012.3 |
| 20260507122403 | 14 | 72 | 3.2 | 8.0 | 0.00 | 0.05 | 0.00 | 86 | 1012.5 |
| 20260507121903 | 14 | 67 | 1.6 | 8.0 | 0.00 | 0.05 | 0.00 | 87 | 1012.5 |
| 20260507121405 | 14 | 182 | 1.6 | 6.4 | 0.00 | 0.05 | 0.00 | 89 | 1012.5 |
| 20260507120903 | 14 | 101 | 1.6 | 4.8 | 0.00 | 0.05 | 0.00 | 89 | 1012.3 |
| 20260507120405 | 14 | 53 | 1.6 | 6.4 | 0.00 | 0.05 | 0.00 | 90 | 1012.3 |
| 20260507115905 | 14 | 85 | 1.6 | 6.4 | 0.00 | 0.05 | 0.00 | 89 | 1012.4 |
| 20260507115623 | 14 | 349 | 0.0 | 3.2 | 0.00 | 0.05 | 0.00 | 89 | 1012.2 |
| 20260507114903 | 14 | 74 | 1.6 | 3.2 | 0.00 | 0.05 | 0.00 | 89 | 1012.3 |
| 20260507114403 | 14 | 74 | 1.6 | 6.4 | 0.00 | 0.05 | 0.00 | 88 | 1012.2 |
| 20260507113904 | 14 | 55 | 1.6 | 6.4 | 0.00 | 0.05 | 0.00 | 88 | 1012.3 |
| 20260507113405 | 15 | 53 | 1.6 | 6.4 | 0.00 | 0.05 | 0.00 | 87 | 1012.3 |
| 20260507113128 | 15 | 94 | 1.6 | 6.4 | 0.00 | 0.05 | 0.00 | 86 | 1012.3 |
| 20260507112404 | 15 | 344 | 1.6 | 4.8 | 0.00 | 0.05 | 0.00 | 85 | 1012.2 |
| 20260507112345 | 15 | 81 | 1.6 | 6.4 | 0.00 | 0.05 | 0.00 | 85 | 1012.2 |
| 20260507111358 | 15 | 81 | 1.6 | 6.4 | 0.00 | 0.05 | 0.00 | 86 | 1012.4 |
| 20260507110852 | 15 | 57 | 1.6 | 4.8 | 0.00 | 0.05 | 0.00 | 87 | 1012.1 |
| 20260507110346 | 15 | 348 | 1.6 | 3.2 | 0.00 | 0.05 | 0.00 | 87 | 1012.0 |
| 20260507105840 | 15 | 348 | 1.6 | 4.8 | 0.00 | 0.05 | 0.00 | 87 | 1011.8 |
| 20260507105334 | 15 | 54 | 1.6 | 6.4 | 0.00 | 0.05 | 0.00 | 87 | 1011.6 |
| 20260507104827 | 15 | 307 | 1.6 | 6.4 | 0.00 | 0.05 | 0.00 | 87 | 1011.5 |
| 20260507104322 | 15 | 19 | 1.6 | 6.4 | 0.00 | 0.05 | 0.00 | 87 | 1011.4 |
| 20260507104041 | 15 | 136 | 1.6 | 4.8 | 0.00 | 0.05 | 0.00 | 87 | 1011.6 |
| 20260507103310 | 15 | 32 | 1.6 | 4.8 | 0.00 | 0.05 | 0.00 | 88 | 1011.4 |
| 20260507103022 | 15 | 281 | 1.6 | 4.8 | 0.00 | 0.05 | 0.00 | 87 | 1011.5 |
| 20260507102258 | 15 | 74 | 1.6 | 4.8 | 0.00 | 0.05 | 0.00 | 87 | 1011.6 |
| 20260507101751 | 15 | 5 | 1.6 | 3.2 | 0.00 | 0.05 | 0.00 | 87 | 1011.6 |
| 20260507101245 | 16 | 5 | 1.6 | 6.4 | 0.00 | 0.05 | 0.00 | 87 | 1011.4 |
| 20260507100740 | 16 | 0 | 0.0 | 6.4 | 0.00 | 0.05 | 0.00 | 87 | 1011.5 |
| 20260507100233 | 16 | 264 | 0.0 | 3.2 | 0.00 | 0.05 | 0.00 | 87 | 1011.5 |
| 20260507095728 | 16 | 29 | 1.6 | 6.4 | 0.00 | 0.05 | 0.00 | 87 | 1011.6 |
| 20260507095223 | 16 | 13 | 1.6 | 6.4 | 0.00 | 0.05 | 0.00 | 86 | 1011.6 |
| 20260507094717 | 16 | 306 | 1.6 | 4.8 | 0.00 | 0.05 | 0.00 | 86 | 1011.5 |
| 20260507094210 | 16 | 38 | 1.6 | 6.4 | 0.00 | 0.05 | 0.00 | 85 | 1011.3 |
| 20260507093703 | 16 | 349 | 1.6 | 6.4 | 0.00 | 0.05 | 0.00 | 85 | 1011.4 |
| 20260507093158 | 16 | 5 | 1.6 | 6.4 | 0.00 | 0.05 | 0.00 | 85 | 1011.4 |
| 20260507092652 | 16 | 334 | 1.6 | 9.7 | 0.00 | 0.05 | 0.00 | 85 | 1011.1 |
| 20260507092145 | 17 | 39 | 1.6 | 9.7 | 0.00 | 0.05 | 0.00 | 84 | 1011.1 |
| 20260507091904 | 17 | 225 | 1.6 | 6.4 | 0.00 | 0.05 | 0.00 | 85 | 1010.9 |
| 20260507091134 | 17 | 226 | 1.6 | 6.4 | 0.00 | 0.05 | 0.00 | 84 | 1010.8 |
| 20260507090628 | 17 | 109 | 1.6 | 6.4 | 0.00 | 0.05 | 0.00 | 85 | 1010.5 |
| 20260507090122 | 17 | 344 | 3.2 | 11.3 | 0.00 | 0.05 | 0.00 | 84 | 1010.7 |
| 20260507085615 | 17 | 84 | 1.6 | 11.3 | 0.00 | 0.05 | 0.00 | 85 | 1010.4 |
| 20260507085110 | 17 | 351 | 1.6 | 6.4 | 0.00 | 0.05 | 0.00 | 85 | 1010.5 |
| 20260507084604 | 18 | 315 | 1.6 | 6.4 | 0.00 | 0.05 | 0.00 | 86 | 1010.6 |
| 20260507084322 | 18 | 273 | 1.6 | 6.4 | 0.00 | 0.05 | 0.00 | 86 | 1010.6 |
| 20260507083552 | 18 | 40 | 1.6 | 6.4 | 0.00 | 0.05 | 0.00 | 86 | 1010.4 |
| 20260507083047 | 18 | 14 | 1.6 | 6.4 | 0.00 | 0.05 | 0.00 | 84 | 1010.4 |
| 20260507082540 | 19 | 13 | 1.6 | 6.4 | 0.00 | 0.05 | 0.00 | 84 | 1010.3 |
| 20260507082034 | 19 | 195 | 1.6 | 12.9 | 0.00 | 0.05 | 0.00 | 84 | 1010.2 |
| 20260507081528 | 20 | 0 | 3.2 | 12.9 | 0.00 | 0.05 | 0.00 | 83 | 1010.2 |
| 20260507081244 | 20 | 196 | 1.6 | 12.9 | 0.00 | 0.05 | 0.00 | 84 | 1010.1 |
| 20260507080516 | 21 | 355 | 0.0 | 12.9 | 0.00 | 0.05 | 0.00 | 84 | 1010.1 |
| 20260507080010 | 21 | 249 | 0.0 | 1.6 | 0.00 | 0.05 | 0.00 | 85 | 1010.2 |
| 20260507075504 | 21 | 249 | 0.0 | 3.2 | 0.00 | 0.05 | 0.00 | 84 | 1010.0 |
| 20260507074958 | 21 | 249 | 0.0 | 1.6 | 0.00 | 0.05 | 0.00 | 84 | 1010.1 |
| 20260507074452 | 21 | 249 | 0.0 | 1.6 | 0.00 | 0.05 | 0.00 | 83 | 1010.2 |
| 20260507073946 | 21 | 249 | 1.6 | 4.8 | 0.00 | 0.05 | 0.00 | 83 | 1010.1 |
| 20260507073440 | 21 | 249 | 1.6 | 4.8 | 0.00 | 0.05 | 0.00 | 83 | 1010.1 |
| 20260507072934 | 21 | 239 | 0.0 | 4.8 | 0.00 | 0.05 | 0.00 | 83 | 1010.0 |
| 20260507072428 | 21 | 239 | 0.0 | 4.8 | 0.00 | 0.05 | 0.00 | 83 | 1010.0 |
| 20260507071922 | 21 | 241 | 0.0 | 1.6 | 0.00 | 0.05 | 0.00 | 83 | 1009.9 |
| 20260507071416 | 21 | 241 | 0.0 | 3.2 | 0.00 | 0.05 | 0.00 | 82 | 1009.7 |
| 20260507070912 | 21 | 241 | 1.6 | 3.2 | 0.00 | 0.05 | 0.00 | 82 | 1009.5 |
| 20260507070413 | 21 | 241 | 1.6 | 3.2 | 0.00 | 0.05 | 0.00 | 82 | 1009.3 |
| 20260507065910 | 21 | 241 | 1.6 | 4.8 | 0.00 | 0.05 | 0.00 | 81 | 1009.2 |
| 20260507065410 | 21 | 260 | 1.6 | 4.8 | 0.00 | 0.05 | 0.00 | 81 | 1009.0 |
| 20260507064909 | 21 | 261 | 1.6 | 3.2 | 0.00 | 0.05 | 0.00 | 81 | 1008.9 |
| 20260507064407 | 21 | 223 | 1.6 | 4.8 | 0.00 | 0.05 | 0.00 | 81 | 1008.9 |
| 20260507063907 | 21 | 231 | 1.6 | 4.8 | 0.00 | 0.05 | 0.00 | 81 | 1008.7 |
| 20260507063407 | 22 | 210 | 1.6 | 6.4 | 0.00 | 0.05 | 0.00 | 80 | 1008.5 |
| 20260507062906 | 22 | 209 | 3.2 | 6.4 | 0.00 | 0.05 | 0.00 | 80 | 1008.7 |
| 20260507062406 | 22 | 211 | 3.2 | 6.4 | 0.00 | 0.05 | 0.00 | 80 | 1009.0 |
| 20260507061908 | 22 | 225 | 3.2 | 6.4 | 0.00 | 0.05 | 0.00 | 79 | 1009.1 |
| 20260507061403 | 22 | 216 | 3.2 | 4.8 | 0.00 | 0.05 | 0.00 | 79 | 1009.0 |
| 20260507060904 | 22 | 216 | 1.6 | 4.8 | 0.00 | 0.05 | 0.00 | 79 | 1009.2 |
| 20260507060403 | 22 | 228 | 1.6 | 4.8 | 0.00 | 0.05 | 0.00 | 79 | 1009.2 |
| 20260507055903 | 22 | 228 | 1.6 | 4.8 | 0.00 | 0.05 | 0.00 | 79 | 1009.3 |
| 20260507055402 | 22 | 231 | 1.6 | 3.2 | 0.00 | 0.05 | 0.00 | 78 | 1009.4 |
| 20260507055129 | 22 | 230 | 1.6 | 4.8 | 0.00 | 0.05 | 0.00 | 78 | 1009.4 |
| 20260507054403 | 22 | 229 | 3.2 | 4.8 | 0.00 | 0.05 | 0.00 | 78 | 1009.6 |
| 20260507053902 | 22 | 210 | 3.2 | 4.8 | 0.00 | 0.05 | 0.00 | 78 | 1009.7 |
| 20260507053616 | 22 | 209 | 3.2 | 6.4 | 0.00 | 0.05 | 0.00 | 78 | 1009.8 |
| 20260507052856 | 22 | 209 | 3.2 | 6.4 | 0.00 | 0.05 | 0.00 | 78 | 1009.9 |
| 20260507052358 | 22 | 219 | 3.2 | 8.0 | 0.00 | 0.05 | 0.00 | 78 | 1010.0 |
| 20260507051856 | 21 | 236 | 3.2 | 6.4 | 0.00 | 0.05 | 0.00 | 78 | 1010.1 |
| 20260507051621 | 21 | 277 | 3.2 | 4.8 | 0.00 | 0.05 | 0.00 | 78 | 1010.1 |
| 20260507050844 | 21 | 279 | 1.6 | 4.8 | 0.00 | 0.05 | 0.00 | 79 | 1010.1 |
| 20260507050338 | 21 | 217 | 1.6 | 4.8 | 0.00 | 0.05 | 0.00 | 79 | 1010.1 |
| 20260507045833 | 21 | 217 | 1.6 | 3.2 | 0.00 | 0.05 | 0.00 | 79 | 1010.1 |
| 20260507045326 | 21 | 217 | 1.6 | 4.8 | 0.00 | 0.05 | 0.00 | 79 | 1010.2 |
| 20260507045042 | 21 | 217 | 1.6 | 4.8 | 0.00 | 0.05 | 0.00 | 79 | 1010.3 |
| 20260507044315 | 21 | 216 | 1.6 | 4.8 | 0.00 | 0.05 | 0.00 | 79 | 1010.3 |
| 20260507043808 | 21 | 216 | 1.6 | 4.8 | 0.00 | 0.05 | 0.00 | 79 | 1010.3 |
| 20260507043303 | 21 | 216 | 1.6 | 3.2 | 0.00 | 0.05 | 0.00 | 79 | 1010.4 |
| 20260507042757 | 21 | 216 | 1.6 | 3.2 | 0.00 | 0.05 | 0.00 | 79 | 1010.4 |
| 20260507042250 | 21 | 198 | 1.6 | 3.2 | 0.00 | 0.05 | 0.00 | 79 | 1010.4 |
| 20260507041744 | 21 | 198 | 1.6 | 4.8 | 0.00 | 0.05 | 0.00 | 79 | 1010.4 |
| 20260507041239 | 21 | 198 | 1.6 | 4.8 | 0.00 | 0.05 | 0.00 | 79 | 1010.2 |
| 20260507040734 | 21 | 198 | 1.6 | 4.8 | 0.00 | 0.05 | 0.00 | 79 | 1010.3 |
| 20260507040229 | 21 | 198 | 3.2 | 4.8 | 0.00 | 0.05 | 0.00 | 79 | 1010.5 |
| 20260507035722 | 21 | 196 | 3.2 | 6.4 | 0.00 | 0.05 | 0.05 | 79 | 1010.2 |
| 20260507035217 | 21 | 220 | 3.2 | 6.4 | 0.00 | 0.05 | 0.05 | 80 | 1010.2 |
| 20260507034711 | 21 | 220 | 3.2 | 6.4 | 0.00 | 0.05 | 0.05 | 80 | 1010.1 |
| 20260507034205 | 21 | 225 | 3.2 | 6.4 | 0.00 | 0.05 | 0.05 | 80 | 1010.3 |
| 20260507033658 | 21 | 213 | 3.2 | 4.8 | 0.00 | 0.05 | 0.05 | 80 | 1010.2 |
| 20260507033153 | 21 | 213 | 3.2 | 4.8 | 0.00 | 0.05 | 0.05 | 80 | 1010.1 |
| 20260507032907 | 21 | 214 | 3.2 | 4.8 | 0.00 | 0.05 | 0.05 | 80 | 1010.2 |
| 20260507032403 | 21 | 213 | 3.2 | 4.8 | 0.00 | 0.05 | 0.05 | 80 | 1010.2 |
| 20260507031634 | 21 | 277 | 3.2 | 4.8 | 0.00 | 0.05 | 0.05 | 80 | 1010.1 |
| 20260507031127 | 21 | 218 | 3.2 | 6.4 | 0.00 | 0.05 | 0.05 | 80 | 1010.0 |
| 20260507030847 | 21 | 215 | 3.2 | 6.4 | 0.00 | 0.05 | 0.05 | 80 | 1010.2 |
| 20260507030115 | 21 | 215 | 3.2 | 4.8 | 0.00 | 0.05 | 0.05 | 80 | 1010.2 |
| 20260507025611 | 21 | 215 | 3.2 | 4.8 | 0.00 | 0.05 | 0.05 | 80 | 1010.3 |
| 20260507025104 | 21 | 215 | 3.2 | 4.8 | 0.00 | 0.05 | 0.05 | 80 | 1010.3 |
| 20260507024559 | 21 | 217 | 3.2 | 6.4 | 0.00 | 0.05 | 0.05 | 80 | 1010.2 |
| 20260507024053 | 21 | 217 | 3.2 | 6.4 | 0.00 | 0.05 | 0.05 | 80 | 1010.2 |
| 20260507024031 | 21 | 200 | 1.6 | 6.4 | 0.00 | 0.05 | 0.05 | 80 | 1010.2 |
| 20260507023041 | 21 | 190 | 3.2 | 4.8 | 0.00 | 0.05 | 0.05 | 80 | 1010.3 |
| 20260507022534 | 21 | 190 | 3.2 | 4.8 | 0.00 | 0.05 | 0.05 | 80 | 1010.5 |
| 20260507022523 | 21 | 189 | 1.6 | 6.4 | 0.00 | 0.05 | 0.05 | 80 | 1010.4 |
| 20260507021523 | 21 | 188 | 3.2 | 6.4 | 0.00 | 0.05 | 0.05 | 80 | 1010.4 |
| 20260507021017 | 21 | 209 | 1.6 | 4.8 | 0.00 | 0.05 | 0.05 | 80 | 1010.3 |
| 20260507020509 | 21 | 204 | 1.6 | 4.8 | 0.00 | 0.05 | 0.05 | 80 | 1010.3 |
| 20260507020010 | 21 | 273 | 1.6 | 3.2 | 0.00 | 0.05 | 0.05 | 80 | 1010.4 |
| 20260507015458 | 21 | 273 | 1.6 | 4.8 | 0.00 | 0.05 | 0.05 | 80 | 1010.4 |
| 20260507014953 | 21 | 273 | 1.6 | 4.8 | 0.00 | 0.05 | 0.05 | 80 | 1010.6 |
| 20260507014447 | 21 | 273 | 1.6 | 3.2 | 0.00 | 0.05 | 0.05 | 80 | 1010.5 |
| 20260507013946 | 21 | 273 | 1.6 | 3.2 | 0.00 | 0.05 | 0.05 | 80 | 1010.4 |
| 20260507013708 | 21 | 273 | 1.6 | 3.2 | 0.00 | 0.05 | 0.05 | 80 | 1010.6 |
| 20260507012946 | 21 | 273 | 1.6 | 3.2 | 0.00 | 0.05 | 0.05 | 80 | 1010.5 |
| 20260507012445 | 21 | 273 | 1.6 | 3.2 | 0.00 | 0.05 | 0.05 | 80 | 1010.3 |
| 20260507012206 | 21 | 273 | 1.6 | 4.8 | 0.00 | 0.05 | 0.05 | 80 | 1010.4 |
| 20260507011444 | 21 | 273 | 1.6 | 4.8 | 0.00 | 0.05 | 0.05 | 80 | 1010.5 |
| 20260507010942 | 21 | 274 | 1.6 | 3.2 | 0.00 | 0.05 | 0.05 | 80 | 1010.6 |
| 20260507010441 | 20 | 274 | 0.0 | 3.2 | 0.00 | 0.05 | 0.05 | 80 | 1010.5 |
| 20260507005941 | 21 | 274 | 0.0 | 1.6 | 0.00 | 0.05 | 0.05 | 80 | 1010.6 |
| 20260507005657 | 21 | 274 | 0.0 | 1.6 | 0.00 | 0.05 | 0.05 | 80 | 1010.6 |
| 20260507004940 | 21 | 273 | 0.0 | 1.6 | 0.00 | 0.05 | 0.05 | 80 | 1010.6 |
| 20260507004440 | 21 | 273 | 0.0 | 1.6 | 0.00 | 0.05 | 0.05 | 79 | 1010.6 |
| 20260507003941 | 21 | 273 | 0.0 | 1.6 | 0.00 | 0.05 | 0.05 | 79 | 1010.6 |
| 20260507003439 | 21 | 273 | 0.0 | 1.6 | 0.00 | 0.05 | 0.05 | 79 | 1010.4 |
| 20260507002939 | 21 | 273 | 0.0 | 1.6 | 0.00 | 0.05 | 0.05 | 78 | 1010.5 |
| 20260507002439 | 21 | 273 | 0.0 | 0.0 | 0.00 | 0.05 | 0.05 | 77 | 1010.4 |
| 20260507001941 | 21 | 273 | 0.0 | 0.0 | 0.00 | 0.05 | 0.05 | 77 | 1010.5 |
| 20260507001703 | 21 | 273 | 0.0 | 1.6 | 0.00 | 0.05 | 0.05 | 76 | 1010.5 |
| 20260507000940 | 22 | 273 | 0.0 | 1.6 | 0.00 | 0.05 | 0.05 | 76 | 1010.5 |
| 20260507000442 | 22 | 273 | 0.0 | 1.6 | 0.00 | 0.05 | 0.05 | 75 | 1010.3 |
| 20260506235939 | 22 | 273 | 0.0 | 1.6 | 0.00 | 0.05 | 0.05 | 75 | 1010.4 |
| 20260506235439 | 22 | 273 | 0.0 | 1.6 | 0.00 | 0.05 | 0.05 | 74 | 1010.4 |
| 20260506234934 | 22 | 273 | 0.0 | 1.6 | 0.00 | 0.05 | 0.05 | 74 | 1010.3 |
| 20260506234920 | 22 | 273 | 0.0 | 3.2 | 0.00 | 0.05 | 0.05 | 74 | 1010.3 |
| 20260506233922 | 22 | 272 | 0.0 | 3.2 | 0.00 | 0.05 | 0.05 | 74 | 1010.3 |
| 20260506233416 | 22 | 277 | 0.0 | 0.0 | 0.00 | 0.05 | 0.05 | 73 | 1010.1 |
| 20260506232910 | 22 | 277 | 0.0 | 0.0 | 0.00 | 0.05 | 0.05 | 73 | 1010.3 |
| 20260506232403 | 22 | 277 | 0.0 | 1.6 | 0.00 | 0.05 | 0.05 | 73 | 1010.2 |
| 20260506231858 | 22 | 277 | 1.6 | 3.2 | 0.00 | 0.05 | 0.05 | 73 | 1010.2 |
| 20260506231352 | 23 | 276 | 1.6 | 3.2 | 0.00 | 0.05 | 0.05 | 72 | 1010.3 |
| 20260506230844 | 23 | 276 | 1.6 | 4.8 | 0.00 | 0.05 | 0.05 | 72 | 1010.1 |
| 20260506230338 | 23 | 277 | 1.6 | 4.8 | 0.00 | 0.05 | 0.05 | 72 | 1010.0 |
| 20260506225834 | 23 | 277 | 1.6 | 4.8 | 0.00 | 0.05 | 0.05 | 71 | 1010.0 |
| 20260506225327 | 23 | 277 | 1.6 | 4.8 | 0.00 | 0.05 | 0.05 | 71 | 1010.1 |
| 20260506224821 | 23 | 277 | 1.6 | 4.8 | 0.00 | 0.05 | 0.05 | 71 | 1010.1 |
| 20260506224316 | 23 | 323 | 1.6 | 6.4 | 0.00 | 0.05 | 0.05 | 70 | 1010.2 |
| 20260506223810 | 23 | 325 | 3.2 | 6.4 | 0.00 | 0.05 | 0.05 | 70 | 1010.1 |
| 20260506223304 | 23 | 218 | 1.6 | 4.8 | 0.00 | 0.05 | 0.05 | 70 | 1010.2 |
| 20260506222758 | 23 | 319 | 3.2 | 6.4 | 0.00 | 0.05 | 0.05 | 70 | 1010.1 |
| 20260506222740 | 23 | 234 | 3.2 | 6.4 | 0.00 | 0.05 | 0.05 | 69 | 1010.1 |
| 20260506221746 | 23 | 234 | 3.2 | 8.0 | 0.00 | 0.05 | 0.05 | 69 | 1010.1 |
| 20260506221240 | 23 | 218 | 3.2 | 8.0 | 0.00 | 0.05 | 0.05 | 69 | 1010.2 |
| 20260506220734 | 23 | 211 | 3.2 | 8.0 | 0.00 | 0.05 | 0.05 | 69 | 1010.3 |
| 20260506220227 | 23 | 240 | 3.2 | 6.4 | 0.00 | 0.05 | 0.05 | 69 | 1010.3 |
| 20260506215722 | 23 | 207 | 3.2 | 6.4 | 0.00 | 0.05 | 0.05 | 69 | 1010.3 |
| 20260506215216 | 23 | 219 | 3.2 | 9.7 | 0.00 | 0.05 | 0.05 | 68 | 1010.2 |
| 20260506214710 | 23 | 221 | 4.8 | 11.3 | 0.00 | 0.05 | 0.05 | 69 | 1010.2 |
| 20260506214203 | 23 | 203 | 4.8 | 11.3 | 0.00 | 0.05 | 0.05 | 69 | 1010.2 |
| 20260506213657 | 23 | 216 | 3.2 | 8.0 | 0.00 | 0.05 | 0.05 | 69 | 1010.3 |
| 20260506213152 | 23 | 169 | 4.8 | 12.9 | 0.00 | 0.05 | 0.05 | 69 | 1010.2 |
| 20260506212646 | 23 | 217 | 3.2 | 12.9 | 0.00 | 0.05 | 0.05 | 69 | 1010.2 |
| 20260506212140 | 23 | 249 | 3.2 | 8.0 | 0.00 | 0.05 | 0.05 | 71 | 1010.3 |
| 20260506211901 | 23 | 200 | 3.2 | 8.0 | 0.00 | 0.05 | 0.05 | 70 | 1010.3 |
| 20260506211128 | 23 | 207 | 3.2 | 4.8 | 0.00 | 0.05 | 0.05 | 71 | 1010.2 |
| 20260506210622 | 23 | 207 | 3.2 | 4.8 | 0.00 | 0.05 | 0.05 | 70 | 1010.0 |
| 20260506210116 | 23 | 206 | 1.6 | 4.8 | 0.00 | 0.05 | 0.05 | 71 | 1010.0 |
| 20260506205610 | 23 | 201 | 1.6 | 4.8 | 0.00 | 0.05 | 0.05 | 71 | 1009.8 |
| 20260506205104 | 23 | 197 | 3.2 | 4.8 | 0.00 | 0.05 | 0.05 | 71 | 1009.9 |
| 20260506204558 | 22 | 191 | 3.2 | 6.4 | 0.00 | 0.05 | 0.05 | 71 | 1009.8 |
| 20260506204052 | 22 | 279 | 1.6 | 4.8 | 0.00 | 0.05 | 0.05 | 72 | 1010.0 |
| 20260506203813 | 22 | 279 | 1.6 | 4.8 | 0.00 | 0.05 | 0.05 | 72 | 1009.7 |
| 20260506203300 | 22 | 192 | 3.2 | 6.4 | 0.00 | 0.05 | 0.05 | 72 | 1009.7 |
| 20260506202534 | 22 | 195 | 3.2 | 6.4 | 0.00 | 0.05 | 0.05 | 72 | 1009.5 |
| 20260506202028 | 22 | 219 | 1.6 | 4.8 | 0.00 | 0.05 | 0.05 | 73 | 1009.4 |
| 20260506201522 | 22 | 219 | 1.6 | 4.8 | 0.00 | 0.05 | 0.05 | 73 | 1009.7 |
| 20260506201015 | 22 | 219 | 1.6 | 4.8 | 0.00 | 0.05 | 0.05 | 74 | 1009.9 |
| 20260506200511 | 22 | 218 | 1.6 | 6.4 | 0.00 | 0.05 | 0.05 | 73 | 1010.0 |
| 20260506200003 | 22 | 217 | 3.2 | 8.0 | 0.00 | 0.05 | 0.05 | 73 | 1009.8 |
| 20260506195458 | 22 | 217 | 3.2 | 8.0 | 0.00 | 0.05 | 0.05 | 73 | 1009.5 |
| 20260506194952 | 21 | 218 | 3.2 | 8.0 | 0.00 | 0.05 | 0.05 | 73 | 1009.6 |
| 20260506194444 | 21 | 221 | 3.2 | 8.0 | 0.00 | 0.05 | 0.05 | 73 | 1010.0 |
| 20260506194200 | 21 | 190 | 3.2 | 8.0 | 0.00 | 0.05 | 0.05 | 74 | 1010.4 |
| 20260506193434 | 21 | 190 | 4.8 | 8.0 | 0.00 | 0.05 | 0.05 | 73 | 1010.2 |
| 20260506192928 | 21 | 211 | 4.8 | 8.0 | 0.00 | 0.05 | 0.05 | 74 | 1010.2 |
| 20260506192647 | 21 | 220 | 3.2 | 8.0 | 0.00 | 0.05 | 0.05 | 74 | 1010.1 |
| 20260506191915 | 21 | 217 | 3.2 | 8.0 | 0.00 | 0.05 | 0.05 | 74 | 1010.3 |
| 20260506191631 | 21 | 210 | 3.2 | 8.0 | 0.00 | 0.05 | 0.05 | 75 | 1010.8 |
| 20260506190914 | 21 | 225 | 4.8 | 8.0 | 0.00 | 0.05 | 0.05 | 75 | 1010.8 |
| 20260506190413 | 21 | 198 | 4.8 | 11.3 | 0.00 | 0.05 | 0.05 | 74 | 1010.9 |
| 20260506185913 | 21 | 223 | 4.8 | 11.3 | 0.00 | 0.05 | 0.05 | 73 | 1011.0 |
| 20260506185413 | 21 | 175 | 4.8 | 11.3 | 0.00 | 0.05 | 0.05 | 73 | 1011.2 |
| 20260506184913 | 21 | 217 | 3.2 | 8.0 | 0.00 | 0.05 | 0.05 | 73 | 1011.1 |
| 20260506184412 | 21 | 207 | 4.8 | 11.3 | 0.00 | 0.05 | 0.05 | 73 | 1011.3 |
| 20260506183912 | 21 | 237 | 4.8 | 11.3 | 0.00 | 0.05 | 0.05 | 73 | 1011.4 |
| 20260506183414 | 21 | 221 | 4.8 | 9.7 | 0.00 | 0.05 | 0.05 | 73 | 1011.4 |
| 20260506182915 | 21 | 221 | 4.8 | 9.7 | 0.00 | 0.05 | 0.05 | 74 | 1011.3 |
| 20260506182408 | 21 | 199 | 4.8 | 9.7 | 0.00 | 0.05 | 0.05 | 75 | 1011.5 |
| 20260506181909 | 21 | 197 | 4.8 | 9.7 | 0.00 | 0.05 | 0.05 | 75 | 1011.6 |
| 20260506181409 | 21 | 221 | 4.8 | 9.7 | 0.00 | 0.05 | 0.05 | 75 | 1011.7 |
| 20260506180908 | 21 | 223 | 4.8 | 8.0 | 0.00 | 0.05 | 0.05 | 75 | 1011.8 |
| 20260506180410 | 20 | 187 | 4.8 | 8.0 | 0.00 | 0.05 | 0.05 | 76 | 1011.8 |
| 20260506175910 | 20 | 199 | 3.2 | 8.0 | 0.00 | 0.05 | 0.05 | 76 | 1011.7 |
| 20260506175856 | 20 | 219 | 4.8 | 8.0 | 0.00 | 0.05 | 0.05 | 76 | 1011.7 |
| 20260506174906 | 20 | 223 | 4.8 | 8.0 | 0.00 | 0.05 | 0.05 | 76 | 1011.7 |
| 20260506174408 | 21 | 219 | 4.8 | 11.3 | 0.00 | 0.05 | 0.05 | 76 | 1011.7 |
| 20260506173904 | 21 | 199 | 4.8 | 11.3 | 0.00 | 0.05 | 0.05 | 75 | 1011.6 |
| 20260506173405 | 21 | 170 | 4.8 | 9.7 | 0.00 | 0.05 | 0.05 | 75 | 1011.6 |
| 20260506172904 | 21 | 190 | 4.8 | 11.3 | 0.00 | 0.05 | 0.05 | 76 | 1011.8 |
| 20260506172359 | 20 | 195 | 6.4 | 11.3 | 0.00 | 0.05 | 0.05 | 77 | 1011.7 |
| 20260506171853 | 20 | 223 | 4.8 | 11.3 | 0.00 | 0.05 | 0.05 | 77 | 1011.8 |
| 20260506171346 | 20 | 226 | 4.8 | 9.7 | 0.00 | 0.05 | 0.05 | 80 | 1011.7 |
| 20260506170841 | 20 | 193 | 3.2 | 9.7 | 0.00 | 0.05 | 0.05 | 81 | 1011.8 |
| 20260506170335 | 19 | 234 | 3.2 | 8.0 | 0.00 | 0.05 | 0.05 | 83 | 1011.8 |
| 20260506165829 | 19 | 188 | 3.2 | 8.0 | 0.00 | 0.05 | 0.05 | 84 | 1012.0 |
| 20260506165323 | 18 | 219 | 4.8 | 8.0 | 0.00 | 0.05 | 0.05 | 84 | 1012.1 |
| 20260506164817 | 18 | 238 | 3.2 | 8.0 | 0.00 | 0.05 | 0.05 | 84 | 1012.3 |
| 20260506164310 | 18 | 243 | 3.2 | 6.4 | 0.00 | 0.05 | 0.05 | 84 | 1012.3 |
| 20260506163805 | 18 | 218 | 1.6 | 4.8 | 0.03 | 0.05 | 0.05 | 86 | 1012.2 |
| 20260506163259 | 18 | 199 | 3.2 | 4.8 | 0.03 | 0.05 | 0.05 | 85 | 1012.3 |
| 20260506162752 | 18 | 182 | 3.2 | 6.4 | 0.03 | 0.05 | 0.05 | 85 | 1012.5 |
| 20260506162246 | 18 | 199 | 3.2 | 6.4 | 0.05 | 0.05 | 0.05 | 86 | 1012.6 |
| 20260506161741 | 18 | 194 | 3.2 | 6.4 | 0.05 | 0.05 | 0.05 | 86 | 1012.8 |
| 20260506161235 | 18 | 229 | 1.6 | 4.8 | 0.05 | 0.05 | 0.05 | 87 | 1012.7 |
| 20260506160729 | 18 | 229 | 1.6 | 4.8 | 0.05 | 0.05 | 0.05 | 87 | 1012.8 |
| 20260506160441 | 18 | 202 | 1.6 | 4.8 | 0.05 | 0.05 | 0.05 | 87 | 1012.9 |
| 20260506155945 | 18 | 191 | 3.2 | 6.4 | 0.05 | 0.05 | 0.05 | 86 | 1012.9 |
| 20260506155211 | 18 | 188 | 3.2 | 6.4 | 0.05 | 0.05 | 0.05 | 85 | 1013.2 |
| 20260506154705 | 18 | 217 | 3.2 | 6.4 | 0.05 | 0.05 | 0.05 | 85 | 1013.3 |
| 20260506154158 | 18 | 217 | 3.2 | 6.4 | 0.03 | 0.03 | 0.03 | 84 | 1013.3 |
| 20260506153653 | 18 | 217 | 1.6 | 6.4 | 0.03 | 0.03 | 0.03 | 83 | 1013.5 |
| 20260506153147 | 19 | 218 | 3.2 | 6.4 | 0.03 | 0.03 | 0.03 | 82 | 1013.4 |
| 20260506152911 | 19 | 218 | 3.2 | 6.4 | 0.00 | 0.00 | 0.00 | 81 | 1013.5 |
| 20260506152135 | 19 | 227 | 3.2 | 6.4 | 0.00 | 0.00 | 0.00 | 79 | 1013.6 |
| 20260506151627 | 20 | 213 | 4.8 | 9.7 | 0.00 | 0.00 | 0.00 | 78 | 1013.6 |
| 20260506151122 | 20 | 206 | 4.8 | 9.7 | 0.00 | 0.00 | 0.00 | 76 | 1013.6 |
| 20260506150617 | 20 | 221 | 4.8 | 9.7 | 0.00 | 0.00 | 0.00 | 74 | 1013.6 |
| 20260506150111 | 21 | 237 | 4.8 | 9.7 | 0.00 | 0.00 | 0.00 | 73 | 1013.7 |
| 20260506145605 | 21 | 190 | 4.8 | 12.9 | 0.00 | 0.00 | 0.00 | 71 | 1013.7 |
| 20260506145059 | 21 | 222 | 4.8 | 12.9 | 0.00 | 0.00 | 0.00 | 71 | 1013.5 |
| 20260506144551 | 20 | 203 | 4.8 | 11.3 | 0.00 | 0.00 | 0.00 | 72 | 1013.4 |
| 20260506144052 | 20 | 194 | 4.8 | 9.7 | 0.00 | 0.00 | 0.00 | 71 | 1013.4 |
| 20260506143552 | 20 | 202 | 4.8 | 12.9 | 0.00 | 0.00 | 0.00 | 72 | 1013.1 |
| 20260506143052 | 20 | 221 | 4.8 | 12.9 | 0.00 | 0.00 | 0.00 | 71 | 1013.2 |
| 20260506142552 | 20 | 208 | 4.8 | 9.7 | 0.00 | 0.00 | 0.00 | 71 | 1013.1 |
| 20260506142541 | 20 | 248 | 4.8 | 9.7 | 0.00 | 0.00 | 0.00 | 71 | 1013.0 |
| 20260506141552 | 20 | 194 | 4.8 | 9.7 | 0.00 | 0.00 | 0.00 | 71 | 1013.1 |
| 20260506141052 | 20 | 203 | 4.8 | 9.7 | 0.00 | 0.00 | 0.00 | 71 | 1013.1 |
| 20260506140552 | 20 | 222 | 4.8 | 8.0 | 0.00 | 0.00 | 0.00 | 71 | 1013.3 |
| 20260506140053 | 20 | 195 | 4.8 | 9.7 | 0.00 | 0.00 | 0.00 | 71 | 1013.2 |
| 20260506135553 | 20 | 241 | 4.8 | 12.9 | 0.00 | 0.00 | 0.00 | 70 | 1013.2 |
| 20260506135315 | 20 | 215 | 4.8 | 12.9 | 0.00 | 0.00 | 0.00 | 70 | 1013.1 |
| 20260506134552 | 20 | 183 | 6.4 | 14.5 | 0.00 | 0.00 | 0.00 | 70 | 1013.1 |
| 20260506134053 | 20 | 231 | 6.4 | 14.5 | 0.00 | 0.00 | 0.00 | 69 | 1013.2 |
| 20260506133551 | 20 | 180 | 6.4 | 12.9 | 0.00 | 0.00 | 0.00 | 68 | 1013.3 |
| 20260506133312 | 20 | 236 | 4.8 | 12.9 | 0.00 | 0.00 | 0.00 | 69 | 1013.1 |
| 20260506132551 | 20 | 234 | 4.8 | 12.9 | 0.00 | 0.00 | 0.00 | 69 | 1013.1 |
| 20260506132048 | 20 | 226 | 4.8 | 9.7 | 0.00 | 0.00 | 0.00 | 70 | 1013.1 |
| 20260506131543 | 20 | 231 | 6.4 | 12.9 | 0.00 | 0.00 | 0.00 | 70 | 1013.0 |
| 20260506131045 | 20 | 209 | 6.4 | 14.5 | 0.00 | 0.00 | 0.00 | 70 | 1012.9 |